Dewpoint
46 47 48 49 48 47 47 47 50 51 53 54 54 53 53 53 53 54 54 54 54 54 53 53 53 53 53 53 53 53 53 53 53 52 52 52 53 54 54 55 56 56 57 57 58 58 58 58 58 58 57 57 56 56 56 56 57 57 57 57 57 57 57 56 57 57 57 56 55
46 46 47 49 49 49 48 49 50 52 53 54 53 53 53 53 53 53 53 53 53 53 52 52 52 52 52 52 52 52 51 51 51 51 51 50 51 52 53 53 54 54 55 55 55 56 57 57 57 57 56 56 56 55 55 55 56 56 56 55 55 56 56 56 56 55 55 55 54
46 46 46 47 48 48 48 49 51 52 52 53 53 53 53 53 53 52 52 52 52 52 51 51 51 51 50 50 50 50 50 50 50 50 50 50 50 50 51 51 52 52 53 53 53 54 54 55 56 56 55 55 55 55 54 54 55 55 54 54 54 54 54 54 54 54 54 54 53
46 46 46 46 47 47 48 49 50 51 51 52 52 52 52 52 52 51 51 51 51 51 50 50 50 50 50 49 49 49 49 49 49 48 48 48 48 49 49 50 50 50 51 51 51 52 52 53 54 54 54 54 54 54 54 53 54 53 53 52 52 52 52 52 52 52 52 52 51
47 47 47 47 46 47 48 49 50 50 51 51 51 51 51 51 51 50 50 50 50 49 49 49 49 49 48 48 48 48 47 48 48 47 47 47 47 48 48 48 49 49 50 50 50 51 51 52 53 53 53 53 53 53 52 53 52 52 51 51 51 51 51 51 51 51 50 50 50
48 47 47 47 47 48 48 50 50 50 50 51 50 50 50 50 50 49 49 48 48 48 48 48 48 48 47 47 47 46 46 46 46 46 46 46 46 47 47 47 47 48 48 49 49 50 50 51 51 51 51 51 51 51 51 52 51 51 50 50 50 50 50 50 50 50 49 49 48
49 49 49 48 48 49 49 49 49 50 50 50 49 49 49 48 48 48 47 47 47 47 47 47 47 46 46 46 45 45 45 45 45 45 45 45 45 45 46 46 46 46 47 47 48 49 49 50 50 50 50 50 50 50 50 51 50 50 49 49 49 49 49 49 49 49 48 48 47
48 49 50 50 50 50 50 50 50 50 49 49 48 48 47 47 47 46 46 46 46 46 45 45 45 45 45 45 45 45 45 45 44 44 44 45 45 45 45 45 45 45 45 46 46 47 48 48 48 48 48 49 49 49 49 49 49 49 48 47 47 47 48 48 48 48 47 46 46
46 47 48 49 50 50 50 50 49 49 48 48 47 47 47 46 46 46 45 45 45 45 45 45 44 44 44 44 44 44 44 44 43 43 43 43 43 44 44 44 44 44 45 45 45 45 46 46 46 46 47 47 47 47 48 48 47 47 47 46 46 46 46 46 46 46 46 45 45
45 45 46 46 47 47 48 48 48 47 47 46 46 46 46 46 45 45 45 45 44 44 43 43 43 43 43 43 43 43 43 43 43 42 42 42 42 42 43 43 43 43 44 44 45 45 45 45 45 45 45 45 45 46 46 46 46 46 45 45 45 45 45 45 45 45 45 44 43
43 44 45 45 45 46 46 46 46 46 45 45 45 45 45 45 44 44 43 43 43 42 42 42 42 41 41 41 41 41 41 41 41 41 41 41 41 41 41 42 42 42 43 43 44 44 44 44 44 44 44 44 44 44 45 45 45 45 44 44 44 44 44 44 44 44 43 43 42
41 42 43 44 44 44 45 44 44 44 44 44 44 44 44 43 43 43 42 41 41 41 41 41 41 41 40 40 40 40 40 40 40 40 40 40 40 41 41 41 41 41 41 42 42 43 43 43 42 42 42 42 43 43 43 43 43 43 43 42 42 42 42 42 42 42 42 42 41
40 41 42 42 43 43 43 43 43 43 43 43 43 43 43 43 42 42 41 41 40 40 40 40 39 39 39 39 39 38 38 38 38 38 38 38 38 39 39 39 39 39 40 40 41 41 41 41 41 41 41 41 41 41 41 41 41 41 41 41 40 40 40 39 40 40 41 40 39
39 40 41 41 42 42 42 42 42 42 42 42 42 42 42 42 42 41 40 39 38 38 38 38 38 38 38 37 37 37 37 37 37 37 37 37 37 37 37 37 38 38 38 38 39 39 39 39 39 39 39 39 39 39 39 39 39 39 39 38 38 37 37 37 37 37 37 37 37
38 39 39 40 40 41 41 41 41 41 41 41 41 41 41 41 41 40 39 38 37 37 36 36 36 36 36 36 36 36 36 36 36 36 36 36 36 36 36 36 37 37 37 37 37 37 37 37 37 37 37 37 37 37 37 37 37 37 37 37 36 36 35 35 35 35 34 34 34
37 38 38 38 39 39 40 40 40 40 40 40 41 41 40 40 40 39 38 37 37 36 36 35 35 35 35 35 35 35 35 35 35 35 36 36 36 36 36 36 36 36 36 36 36 36 36 36 36 36 36 36 36 36 36 36 36 36 36 36 36 36 35 34 33 33 33 33 33
37 37 38 38 38 38 38 39 39 39 39 39 40 40 40 40 39 38 37 36 36 35 35 34 34 34 34 34 35 35 35 35 35 35 35 35 35 35 35 35 35 36 36 36 36 36 36 36 36 36 36 36 36 36 36 36 36 36 36 36 36 35 35 35 33 33 33 33 33
36 36 37 37 37 37 38 38 38 38 38 38 38 39 39 39 38 37 36 36 35 34 33 33 33 33 33 33 33 34 34 34 34 34 34 34 34 34 35 35 35 35 35 35 35 35 36 36 36 36 36 36 35 35 35 35 35 35 35 35 35 35 34 34 34 33 33 33 33
35 35 36 36 36 37 37 37 37 37 37 37 37 37 37 37 36 36 36 35 35 34 33 32 32 32 32 32 32 33 33 33 33 33 33 33 33 34 34 34 34 34 34 35 35 35 35 35 35 35 35 35 35 35 35 34 34 34 34 34 34 34 34 34 34 34 34 33 33
34 35 35 36 36 36 36 36 36 36 36 36 36 35 35 35 35 35 35 34 34 34 33 32 32 31 31 31 32 32 32 32 32 32 32 32 32 33 33 33 33 33 34 34 34 34 34 35 35 35 35 35 34 34 34 34 33 33 33 33 33 34 34 34 34 34 34 34 33
34 34 35 35 36 36 36 36 35 35 34 34 34 33 33 33 33 33 33 33 34 33 32 32 31 30 30 30 31 31 31 31 31 31 31 32 32 32 32 32 32 33 33 33 33 33 34 34 34 34 34 34 34 33 33 33 33 33 33 33 33 33 33 33 33 33 33 33 33
33 34 34 35 35 36 35 35 34 34 33 32 32 32 32 32 32 32 32 32 32 32 32 31 31 30 30 30 30 30 31 31 30 30 31 31 31 31 32 32 32 32 32 32 32 32 32 32 32 32 33 33 32 32 32 32 32 32 32 32 32 32 32 32 33 33 33 33 33
33 34 34 35 35 35 35 34 33 33 32 32 31 31 31 31 31 31 31 31 31 31 31 30 30 30 30 30 30 30 30 30 30 30 30 30 30 30 31 31 31 31 31 32 32 32 32 32 32 32 32 32 31 31 32 32 32 32 32 32 32 32 32 32 32 32 33 33 33
33 33 34 34 34 34 34 34 33 32 31 31 31 30 30 29 29 29 29 29 29 29 30 30 29 29 29 29 30 30 30 30 30 30 30 30 30 30 29 29 30 30 31 31 32 32 32 31 30 30 30 30 30 30 31 31 32 32 31 31 32 32 32 32 32 33 33 34 34
32 33 33 34 34 34 33 33 32 32 31 30 30 30 29 29 28 28 28 27 27 27 28 28 28 29 29 29 29 29 29 29 29 29 29 29 29 29 29 29 29 30 30 31 33 33 32 32 30 28 27 27 28 28 29 30 30 31 31 31 32 32 32 32 32 32 33 33 34
32 33 33 33 33 33 33 33 32 32 31 30 30 29 28 28 28 27 27 27 27 27 27 28 29 29 30 30 30 30 30 30 30 29 29 29 29 30 30 29 29 29 30 32 33 33 32 32 30 28 26 25 25 25 26 27 28 29 29 30 31 32 32 32 32 32 31 31 31
32 32 33 33 33 33 33 33 33 32 32 31 31 30 29 29 28 27 27 27 27 27 28 28 29 30 31 30 30 30 30 30 30 30 30 30 30 30 30 30 30 30 31 32 33 32 32 32 31 29 27 25 24 24 23 23 23 25 26 27 28 30 30 31 30 30 29 29 29
32 32 33 33 33 33 33 33 33 33 33 33 32 32 31 31 30 29 29 29 28 29 29 29 30 30 30 30 30 30 30 31 31 31 31 31 31 30 30 30 30 31 32 33 33 32 32 32 31 30 29 27 25 24 24 23 23 23 23 23 25 27 28 29 29 28 28 28 28
32 32 32 33 33 33 33 34 33 34 34 34 33 33 32 32 31 31 30 30 30 30 30 30 30 30 30 30 30 30 30 31 31 31 32 32 31 31 31 31 31 32 33 33 33 32 32 32 31 31 30 28 25 23 23 23 22 22 22 22 23 24 26 27 28 28 28 28 28
32 32 32 32 32 33 33 33 34 34 34 34 33 33 33 32 32 32 31 31 31 31 31 31 30 30 30 30 30 30 30 30 30 30 31 31 32 32 32 32 32 32 33 33 33 32 32 32 31 31 30 29 26 24 23 23 23 23 23 23 23 23 24 25 25 26 27 27 27
31 31 32 32 32 32 33 33 33 34 34 34 34 34 34 33 32 32 32 31 31 31 31 30 30 29 29 29 29 29 29 29 29 29 30 31 32 32 32 32 32 32 33 33 33 32 32 32 31 31 30 29 26 24 23 23 23 23 23 23 23 23 24 24 24 25 25 26 26
30 30 31 31 31 32 32 32 33 33 33 33 33 34 34 33 33 32 32 32 32 31 31 30 30 29 29 29 29 29 29 29 29 29 29 29 30 30 30 31 31 32 32 33 33 32 32 32 32 31 30 29 27 24 23 23 23 23 23 23 23 24 24 25 24 24 24 25 26
29 29 30 30 31 31 31 32 32 33 33 33 33 33 33 33 33 32 32 32 32 31 30 30 30 30 30 30 30 30 30 30 30 30 31 30 30 30 30 31 30 31 32 32 32 32 32 32 32 31 31 30 26 24 23 23 23 23 24 24 24 24 24 24 24 24 24 25 25
27 28 29 29 30 30 31 31 32 32 32 33 33 33 33 33 32 32 32 32 32 32 31 31 31 31 30 30 30 30 30 30 30 30 30 30 30 30 30 30 30 31 32 32 32 31 31 31 31 31 30 29 25 23 23 23 23 23 24 24 24 24 24 23 23 24 24 24 25
27 27 27 28 29 29 30 30 31 31 32 32 32 33 33 33 33 32 32 32 32 32 31 31 31 31 31 31 30 30 30 29 29 29 30 30 30 30 30 30 30 31 32 31 31 30 30 30 30 30 29 27 23 22 22 22 23 23 24 24 24 24 24 24 24 24 23 23 24
26 26 26 27 27 28 28 29 29 30 30 32 32 32 33 33 33 32 32 32 32 31 31 31 31 31 31 31 30 30 30 29 29 30 30 30 30 29 29 30 30 31 31 31 30 29 29 29 30 29 28 25 23 22 22 22 22 23 23 23 23 23 23 23 23 23 23 23 23
25 25 25 25 26 26 27 27 27 28 29 30 31 32 32 32 32 32 32 32 31 31 31 31 31 30 30 30 30 30 31 31 31 31 31 31 31 30 29 30 30 30 30 30 30 29 29 29 29 29 27 23 21 21 21 21 21 22 22 22 21 21 21 21 21 21 22 23 24
24 25 25 25 25 25 26 26 27 27 28 29 30 31 32 32 32 32 31 32 31 31 30 30 30 30 30 30 31 31 31 32 32 32 31 31 31 31 30 30 30 30 31 30 30 29 29 29 29 28 26 23 21 21 21 21 21 21 21 21 20 20 19 19 19 19 21 24 28
24 25 25 25 25 25 26 26 26 27 27 28 29 30 31 31 32 32 32 31 30 30 30 30 30 30 31 31 31 31 31 31 32 32 31 31 31 31 31 30 30 31 31 31 30 30 29 29 29 28 27 23 21 21 21 21 21 21 20 20 20 20 19 19 18 18 19 22 28
23 24 24 25 25 25 26 26 26 26 27 27 29 30 30 31 32 32 32 31 30 30 31 31 31 31 32 32 31 30 29 30 30 31 31 31 32 32 31 30 30 30 31 31 30 30 29 29 29 29 27 23 22 21 21 21 21 20 20 19 19 20 20 19 18 18 18 19 25
21 22 23 24 24 25 25 26 26 26 27 27 28 29 31 31 32 32 32 32 31 31 32 32 32 32 31 31 29 28 27 27 28 28 29 30 30 31 31 29 29 29 30 30 30 30 29 29 29 29 27 25 23 22 22 21 21 20 19 19 19 19 19 19 18 18 18 18 19